1484247600.02,48187,5.81,72114.0,-15.69,-25.19,-26.03,0,*61
1484247601.28,48188,5.81,72116.0,-15.69,-25.19,-26.17,0,*6B
1484247602.56,48189,5.81,72116.3,-15.69,-25.03,-26.03,0,*64
1484247603.83,48190,5.81,72112.0,-15.69,-25.03,-25.87,0,*63
1484247605.1,48191,5.81,72118.8,-15.69,-25.03,-26.03,0,*6D
1484247606.37,48192,5.81,72116.3,-15.69,-25.03,-25.87,0,*61
1484247607.64,48193,5.81,72118.3,-15.71,-25.03,-25.81,0,*6F
1484247608.86,48194,5.81,72116.3,-15.71,-25.13,-26.03,0,*60
1484247610.1,48195,5.81,72118.5,-15.71,-25.13,-26.17,0,*64
1484247611.35,48196,5.81,72118.3,-15.71,-25.13,-25.97,0,*6C
1484247612.57,48197,5.81,72116.5,-15.71,-25.13,-26.03,0,*63
1484247613.82,48198,5.81,72116.5,-15.69,-25.13,-26.03,0,*65
1484247615.12,48199,5.81,72116.5,-15.69,-25.03,-25.81,0,*6C
1484247616.39,48200,5.81,72110.8,-15.71,-24.87,-25.71,0,*64
1484247617.67,48201,5.81,72112.5,-15.71,-24.87,-25.71,0,*65
1484247618.88,48202,5.81,72114.0,-15.71,-24.97,-25.87,0,*6E
1484247620.15,48203,5.81,72114.0,-15.73,-24.93,-25.71,0,*60
1484247621.4,48204,5.81,72116.0,-15.71,-24.71,-25.65,0,*6C
1484247622.69,48205,5.81,72116.8,-15.71,-24.71,-25.71,0,*68
1484247623.94,48206,5.81,72118.5,-15.71,-24.83,-25.61,0,*67
1484247625.19,48207,5.81,72116.0,-15.73,-24.77,-25.65,0,*6B
1484247626.45,48208,5.81,72116.3,-15.73,-24.57,-25.49,0,*68
1484247627.75,48209,5.81,72106.0,-15.73,-24.71,-25.55,0,*60
1484247629.0,48210,5.81,72104.0,-15.71,-24.61,-25.45,0,*6A
1484247630.24,48211,5.81,72104.3,-15.71,-24.61,-25.29,0,*61
1484247631.47,48212,5.81,72110.5,-15.71,-24.51,-25.35,0,*6C
1484247632.74,48213,5.81,72102.5,-15.69,-24.35,-25.29,0,*6B
1484247634.02,48214,5.81,72100.3,-15.69,-24.51,-25.29,0,*6E
1484247635.29,48215,5.81,72098.0,-15.71,-24.67,-25.45,0,*69
1484247636.54,48216,5.81,72094.5,-15.69,-24.61,-25.49,0,*69
1484247637.79,48217,5.81,72102.8,-15.69,-24.61,-25.35,0,*63
1484247639.01,48218,5.81,72110.0,-15.71,-24.47,-25.35,0,*61
1484247640.26,48219,5.81,72116.3,-15.71,-24.35,-25.29,0,*68
1484247641.51,48220,5.81,72116.0,-15.71,-24.51,-25.29,0,*60
1484247642.76,48221,5.81,72118.0,-15.71,-24.47,-25.29,0,*66
1484247644.04,48222,5.81,72110.8,-15.69,-24.51,-25.45,0,*61
1484247645.32,48223,5.81,72106.8,-15.69,-24.67,-25.61,0,*63
1484247646.6,48224,5.81,72108.8,-15.69,-24.71,-25.61,0,*63
1484247647.88,48225,5.81,72104.5,-15.69,-24.83,-25.61,0,*6F
1484247649.17,48226,5.81,72110.5,-15.69,-24.71,-25.65,0,*65
1484247650.43,48227,5.81,72104.5,-15.67,-24.67,-25.45,0,*6F
1484247651.72,48228,5.81,72106.3,-15.69,-24.83,-25.61,0,*62
1484247653.02,48229,5.81,72104.8,-15.69,-24.87,-25.71,0,*66
1484247654.26,48230,5.81,72104.3,-15.69,-24.97,-25.65,0,*6A
1484247655.53,48231,5.81,72110.3,-15.69,-25.03,-25.87,0,*6B
1484247656.83,48232,5.81,72106.0,-15.69,-25.03,-25.97,0,*69
1484247658.1,48233,5.81,72114.3,-15.69,-25.13,-25.97,0,*69
1484247659.4,48234,5.81,72108.3,-15.69,-24.87,-25.71,0,*6A
1484247660.67,48235,5.81,72110.5,-15.69,-24.97,-25.71,0,*6A
1484247661.96,48236,5.81,72110.0,-15.69,-24.71,-25.65,0,*64
1484247663.2,48237,5.81,72110.8,-15.69,-24.97,-25.87,0,*61
1484247664.44,48238,5.81,72106.0,-15.71,-24.97,-25.81,0,*61
1484247665.73,48239,5.81,72108.8,-15.69,-24.71,-25.61,0,*6F
1484247666.98,48240,5.81,72108.8,-15.71,-24.83,-25.61,0,*65
1484247668.23,48241,5.81,72114.0,-15.67,-24.83,-25.61,0,*63
1484247669.48,48242,5.81,72114.0,-15.71,-24.83,-25.65,0,*63
1484247670.73,48243,5.81,72108.3,-15.71,-24.67,-25.49,0,*66
1484247671.99,48244,5.81,72114.8,-15.69,-24.51,-25.35,0,*66
1484247673.21,48245,5.81,72112.3,-15.71,-24.47,-25.35,0,*69
1484247674.47,48246,5.81,72116.0,-15.69,-24.61,-25.49,0,*6C
1484247675.71,48247,5.81,72120.3,-15.71,-24.67,-25.61,0,*68
1484247676.94,48248,5.81,72120.5,-15.71,-24.61,-25.61,0,*61
1484247678.19,48249,5.81,72120.0,-15.69,-24.61,-25.61,0,*69
1484247679.48,48250,5.81,72120.0,-15.69,-24.71,-25.61,0,*60
1484247680.73,48251,5.81,72118.3,-15.71,-24.67,-25.61,0,*6F
1484247682.0,48252,5.81,72120.8,-15.71,-24.87,-25.71,0,*63
1484247683.28,48253,5.81,72114.8,-15.69,-24.83,-25.65,0,*6A
1484247684.57,48254,5.81,72114.3,-15.69,-24.71,-25.65,0,*60
1484247685.83,48255,5.81,72114.5,-15.67,-24.67,-25.45,0,*6A
1484247687.09,48256,5.81,72112.0,-15.69,-24.61,-25.49,0,*6D
1484247688.35,48257,5.81,72108.8,-15.71,-24.71,-25.49,0,*64
1484247689.57,48258,5.81,72110.5,-15.71,-24.51,-25.35,0,*62
1484247690.83,48259,5.81,72110.0,-15.71,-24.71,-25.61,0,*60
1484247692.11,48260,5.81,72108.5,-15.69,-24.83,-25.65,0,*6A
1484247693.33,48261,5.81,72106.8,-15.67,-24.77,-25.65,0,*6E
1484247694.57,48262,5.81,72118.8,-15.69,-24.97,-25.87,0,*61
1484247695.85,48263,5.81,72118.8,-15.69,-24.87,-25.65,0,*6D
1484247697.09,48264,5.81,72120.3,-15.67,-24.61,-25.45,0,*6E
1484247698.34,48265,5.81,72114.3,-15.69,-24.61,-25.35,0,*66
1484247699.61,48266,5.81,72108.3,-15.69,-24.61,-25.45,0,*62
1484247700.88,48267,5.81,72108.8,-15.69,-24.67,-25.61,0,*63
1484247702.16,48268,5.81,72110.5,-15.69,-24.67,-25.49,0,*66
1484247703.38,48269,5.81,72104.8,-15.71,-24.61,-25.35,0,*63
1484247704.61,48270,5.81,72092.0,-15.67,-24.31,-25.13,0,*6D
1484247705.83,48271,5.81,72104.3,-15.67,-24.31,-25.13,0,*6C
1484247707.09,48272,5.81,72096.3,-15.67,-24.25,-25.09,0,*61
1484247708.31,48273,5.81,72094.5,-15.67,-24.31,-25.13,0,*6E
1484247709.57,48274,5.81,72100.8,-15.67,-24.25,-25.13,0,*6C
1484247710.85,48275,5.81,72090.5,-15.65,-24.25,-25.13,0,*6F
1484247712.12,48276,5.81,72076.5,-15.65,-24.25,-24.97,0,*61
1484247713.41,48277,5.81,72098.5,-15.65,-23.85,-24.67,0,*62
1484247714.71,48278,5.81,72110.3,-15.65,-23.99,-24.83,0,*6A
1484247715.96,48279,5.81,72110.3,-15.65,-24.31,-25.23,0,*65
1484247717.23,48280,5.81,72118.3,-15.65,-24.41,-25.23,0,*64
1484247718.49,48281,5.81,72114.5,-15.65,-24.47,-25.23,0,*63
1484247719.71,48282,5.81,72114.3,-15.63,-24.51,-25.35,0,*66
1484247720.98,48283,5.81,72112.0,-15.65,-24.57,-25.45,0,*60
1484247722.26,48284,5.81,72114.5,-15.65,-24.47,-25.29,0,*6C
1484247723.51,48285,5.81,72126.0,-15.65,-24.31,-25.13,0,*65
1484247724.73,48286,5.81,72126.0,-15.63,-24.35,-25.23,0,*67
1484247726.03,48287,5.81,72120.8,-15.65,-24.41,-25.29,0,*69
1484247727.28,48288,5.81,72112.5,-15.63,-24.41,-25.23,0,*6A
1484247728.5,48289,5.81,72114.3,-15.63,-24.61,-25.39,0,*62
1484247729.75,48290,5.81,72108.0,-15.65,-24.57,-25.39,0,*69
1484247731.03,48291,5.81,72112.0,-15.65,-24.25,-25.13,0,*65
1484247732.3,48292,5.81,72098.0,-15.65,-24.11,-25.13,0,*61
1484247733.58,48293,5.81,72096.0,-15.63,-24.21,-25.03,0,*64
1484247734.83,48294,5.81,72100.0,-15.63,-24.21,-25.09,0,*69
1484247736.08,48295,5.81,72098.8,-15.63,-24.25,-25.09,0,*6C
1484247737.38,48296,5.81,72104.0,-15.61,-24.11,-25.03,0,*60
1484247738.65,48297,5.81,72110.3,-15.61,-24.41,-25.23,0,*66
1484247739.89,48298,5.81,72110.0,-15.61,-24.57,-25.35,0,*69
1484247741.14,48299,5.81,72106.8,-15.61,-24.61,-25.49,0,*66
1484247742.39,48300,5.81,72096.0,-15.61,-24.57,-25.49,0,*62
1484247743.65,48301,5.81,72102.3,-15.61,-24.51,-25.49,0,*65
1484247744.9,48302,5.81,72100.0,-15.61,-24.61,-25.49,0,*65
1484247746.15,48303,5.81,72110.8,-15.61,-24.51,-25.49,0,*67
1484247747.4,48304,5.81,72104.8,-15.61,-24.57,-25.39,0,*61
1484247748.65,48305,5.81,72102.8,-15.61,-24.61,-25.61,0,*68
1484247749.91,48306,5.81,72110.3,-15.59,-24.67,-25.45,0,*60
1484247751.18,48307,5.81,72112.3,-15.61,-24.61,-25.55,0,*6D
1484247752.47,48308,5.81,72102.3,-15.61,-24.71,-25.61,0,*64
1484247753.78,48309,5.81,72100.8,-15.61,-24.71,-25.55,0,*62
1484247755.03,48310,5.81,72106.0,-15.61,-24.77,-25.61,0,*6B
1484247756.3,48311,5.81,72110.3,-15.61,-24.77,-25.71,0,*6B
1484247757.55,48312,5.81,72112.8,-15.59,-24.51,-25.29,0,*6A
1484247758.85,48313,5.81,72110.3,-15.61,-24.71,-25.71,0,*6F
1484247760.16,48314,5.81,72116.5,-15.61,-24.71,-25.55,0,*6E
1484247761.41,48315,5.81,72112.8,-15.63,-24.61,-25.55,0,*6C
1484247762.66,48316,5.81,72110.8,-15.61,-24.61,-25.61,0,*6A
1484247763.97,48317,5.81,72110.5,-15.61,-24.71,-25.55,0,*6D
1484247765.22,48318,5.81,72110.3,-15.61,-24.57,-25.39,0,*6C
1484247766.44,48319,5.81,72100.3,-15.63,-24.51,-25.39,0,*69
1484247767.68,48320,5.81,72108.5,-15.61,-24.57,-25.23,0,*6C
1484247768.93,48321,5.81,72114.0,-15.61,-24.61,-25.39,0,*63
1484247770.18,48322,5.81,72114.3,-15.61,-24.61,-25.49,0,*67
1484247771.46,48323,5.81,72112.5,-15.61,-24.71,-25.49,0,*67
1484247772.71,48324,5.81,72118.3,-15.61,-24.57,-25.49,0,*64
1484247773.97,48325,5.81,72120.0,-15.59,-24.67,-25.45,0,*61
1484247775.24,48326,5.81,72118.3,-15.59,-24.87,-25.55,0,*6D
1484247776.51,48327,5.81,72122.8,-15.59,-24.87,-25.55,0,*6C
1484247777.77,48328,5.81,72118.8,-15.59,-24.87,-25.71,0,*65
1484247779.04,48329,5.81,72126.5,-15.59,-24.83,-25.55,0,*66
1484247780.31,48330,5.81,72124.0,-15.59,-24.83,-25.55,0,*6E
1484247781.55,48331,5.81,72116.5,-15.59,-24.97,-25.71,0,*6C
1484247782.85,48332,5.81,72112.3,-15.61,-25.03,-25.75,0,*6C
1484247784.15,48333,5.81,72112.8,-15.61,-25.03,-25.75,0,*6D
1484247785.41,48334,5.81,72118.3,-15.59,-25.03,-25.81,0,*6A
1484247786.65,48335,5.81,72120.0,-15.59,-24.87,-25.65,0,*6C
1484247787.89,48336,5.81,72122.8,-15.59,-24.87,-25.65,0,*6F
1484247789.13,48337,5.81,72124.5,-15.59,-24.97,-25.71,0,*6A
1484247790.34,48338,5.81,72128.5,-15.59,-24.97,-25.65,0,*60
1484247791.58,48339,5.81,72128.0,-15.59,-24.87,-25.65,0,*60
1484247792.84,48340,5.81,72114.8,-15.59,-24.87,-25.55,0,*6D
1484247794.09,48341,5.81,72120.0,-15.59,-24.83,-25.49,0,*65
1484247795.36,48342,5.81,72118.0,-15.59,-24.83,-25.55,0,*6B
1484247796.63,48343,5.81,72108.5,-15.59,-24.83,-25.55,0,*6A
1484247797.9,48344,5.81,72114.3,-15.59,-24.83,-25.55,0,*6D
1484247799.14,48345,5.81,72114.3,-15.59,-24.57,-25.29,0,*6E
1484247800.38,48346,5.81,72106.3,-15.57,-24.57,-25.19,0,*60
1484247801.65,48347,5.81,72114.3,-15.59,-24.67,-25.29,0,*6F
1484247802.92,48348,5.81,72116.5,-15.59,-24.71,-25.45,0,*6D
1484247804.19,48349,5.81,72116.8,-15.59,-24.71,-25.45,0,*6C
1484247805.48,48350,5.81,72114.5,-15.57,-24.67,-25.45,0,*6D
1484247806.73,48351,5.81,72118.0,-15.59,-24.71,-25.49,0,*69
1484247808.0,48352,5.81,72114.3,-15.57,-24.83,-25.65,0,*67
1484247809.3,48353,5.81,72118.8,-15.57,-24.71,-25.45,0,*69
1484247810.58,48354,5.81,72120.5,-15.57,-24.83,-25.49,0,*6F
1484247811.83,48355,5.81,72116.3,-15.59,-24.83,-25.49,0,*60
1484247813.06,48356,5.81,72112.8,-15.53,-24.77,-25.49,0,*62
1484247814.31,48357,5.81,72110.5,-15.53,-24.77,-25.45,0,*6F
1484247815.54,48358,5.81,72104.5,-15.53,-24.77,-25.49,0,*6C
1484247816.79,48359,5.81,72102.8,-15.53,-24.77,-25.45,0,*61
1484247818.02,48360,5.81,72096.8,-15.53,-24.77,-25.49,0,*67
1484247819.25,48361,5.81,72102.8,-15.53,-24.77,-25.39,0,*61
1484247820.48,48362,5.81,72096.8,-15.53,-24.77,-25.39,0,*62
1484247821.73,48363,5.81,72092.8,-15.53,-24.77,-25.29,0,*62
1484247822.98,48364,5.81,72096.0,-15.53,-24.61,-25.29,0,*62
1484247824.25,48365,5.81,72092.5,-15.53,-24.67,-25.29,0,*65
1484247825.48,48366,5.81,72096.0,-15.53,-24.77,-25.49,0,*61
1484247826.74,48367,5.81,72100.8,-15.53,-24.83,-25.61,0,*61
1484247827.99,48368,5.81,72106.8,-15.53,-24.77,-25.45,0,*63
1484247829.26,48369,5.81,72108.5,-15.53,-24.67,-25.45,0,*63
1484247830.5,48370,5.81,72112.3,-15.51,-24.93,-25.61,0,*64
1484247831.72,48371,5.81,72116.5,-15.53,-24.93,-25.61,0,*67
1484247833.02,48372,5.81,72116.5,-15.51,-24.83,-25.45,0,*61
1484247834.3,48373,5.81,72122.0,-15.51,-24.83,-25.49,0,*6C
1484247835.58,48374,5.81,72118.0,-15.51,-24.83,-25.49,0,*6B
1484247836.83,48375,5.81,72112.3,-15.53,-24.83,-25.49,0,*68
1484247838.09,48376,5.81,72118.0,-15.53,-24.83,-25.61,0,*61
1484247839.35,48377,5.81,72122.0,-15.53,-24.83,-25.49,0,*6A
1484247840.58,48378,5.81,72126.0,-15.53,-24.77,-25.49,0,*6E
1484247841.86,48379,5.81,72122.8,-15.51,-24.83,-25.61,0,*6C
1484247843.14,48380,5.81,72118.0,-15.51,-24.83,-25.61,0,*6A
1484247844.42,48381,5.81,72120.8,-15.51,-24.83,-25.61,0,*6B
1484247845.64,48382,5.81,72116.8,-15.53,-24.93,-25.65,0,*6F
1484247846.88,48383,5.81,72112.5,-15.51,-24.97,-25.65,0,*68
1484247848.14,48384,5.81,72114.8,-15.51,-24.93,-25.75,0,*6A
1484247849.41,48385,5.81,72118.0,-15.51,-25.13,-25.81,0,*69
1484247850.65,48386,5.81,72116.5,-15.51,-25.13,-25.91,0,*6B
1484247851.92,48387,5.81,72116.5,-15.51,-25.13,-25.81,0,*6B
1484247853.19,48388,5.81,72112.5,-15.51,-25.09,-25.75,0,*64
1484247854.46,48389,5.81,72112.0,-15.51,-24.97,-25.81,0,*68
1484247855.71,48390,5.81,72110.5,-15.53,-25.09,-25.75,0,*6F
1484247856.97,48391,5.81,72114.5,-15.51,-24.97,-25.81,0,*61
1484247858.21,48392,5.81,72114.8,-15.51,-25.13,-25.91,0,*6E
1484247859.45,48393,5.81,72114.3,-15.51,-25.13,-25.91,0,*6F
1484247860.67,48394,5.81,72118.5,-15.53,-25.13,-25.91,0,*6A
1484247861.91,48395,5.81,72120.0,-15.51,-25.23,-25.91,0,*6A
1484247863.13,48396,5.81,72116.0,-15.53,-25.13,-25.91,0,*68
1484247864.37,48397,5.81,72118.8,-15.51,-25.13,-25.91,0,*6B
1484247865.64,48398,5.81,72118.5,-15.51,-24.97,-25.81,0,*68
1484247866.89,48399,5.81,72114.0,-15.53,-25.09,-25.75,0,*66
1484247868.1,48400,5.81,72120.8,-15.53,-25.09,-25.91,0,*6B
1484247869.35,48401,5.81,72120.8,-15.53,-25.09,-25.81,0,*6B
1484247870.59,48402,5.81,72120.8,-15.51,-25.09,-25.91,0,*6B
1484247871.86,48403,5.81,72120.8,-15.51,-25.13,-25.97,0,*67
1484247873.11,48404,5.81,72120.5,-15.53,-25.29,-26.07,0,*61
1484247874.35,48405,5.81,72120.5,-15.53,-25.23,-25.97,0,*60
1484247875.62,48406,5.81,72118.8,-15.51,-25.29,-26.07,0,*61
1484247876.89,48407,5.81,72116.5,-15.51,-25.09,-25.97,0,*68
1484247878.13,48408,5.81,72128.0,-15.57,-25.35,-26.03,0,*60
1484247879.42,48409,5.81,72122.3,-15.57,-25.29,-26.13,0,*6D
1484247880.69,48410,5.81,72124.8,-15.53,-25.29,-25.97,0,*6E
1484247881.94,48411,5.81,72130.5,-15.53,-25.23,-25.97,0,*65
1484247883.18,48412,5.81,72126.0,-15.53,-24.93,-25.81,0,*6B
1484247884.43,48413,5.81,72120.0,-15.53,-25.13,-25.97,0,*64
1484247885.65,48414,5.81,72112.0,-15.53,-24.97,-25.91,0,*68
1484247886.89,48415,5.81,72112.3,-15.53,-25.09,-25.81,0,*6E
1484247888.11,48416,5.81,72106.3,-15.53,-25.13,-25.91,0,*67
1484247889.36,48417,5.81,72110.5,-15.53,-24.93,-25.75,0,*65
1484247890.57,48418,5.81,72118.0,-15.53,-25.09,-25.91,0,*62
1484247891.79,48419,5.81,72116.8,-15.53,-25.09,-25.91,0,*63
1484247893.04,48420,5.81,72116.3,-15.53,-25.09,-25.81,0,*68
1484247894.25,48421,5.81,72116.0,-15.53,-25.23,-25.91,0,*60
1484247895.5,48422,5.81,72122.5,-15.53,-24.97,-25.81,0,*6C
1484247896.73,48423,5.81,72116.3,-15.53,-24.77,-25.49,0,*67
1484247897.99,48424,5.81,72108.5,-15.53,-24.67,-25.49,0,*61
1484247899.22,48425,5.81,72108.3,-15.51,-24.93,-25.65,0,*67
1484247900.44,48426,5.81,72118.5,-15.53,-24.93,-25.65,0,*66
1484247901.69,48427,5.81,72110.8,-15.51,-24.77,-25.49,0,*61
1484247902.94,48428,5.81,72108.3,-15.51,-24.77,-25.39,0,*69
1484247904.2,48429,5.81,72106.8,-15.53,-24.67,-25.49,0,*6C
1484247905.45,48430,5.81,72108.8,-15.51,-24.77,-25.49,0,*67
1484247906.72,48431,5.81,72110.5,-15.49,-24.67,-25.45,0,*62
1484247907.99,48432,5.81,72118.0,-15.51,-24.83,-25.61,0,*64
1484247909.23,48433,5.81,72118.0,-15.51,-24.93,-25.61,0,*64
1484247910.51,48434,5.81,72110.5,-15.51,-24.83,-25.61,0,*62
1484247911.78,48435,5.81,72102.0,-15.51,-24.77,-25.45,0,*6E
1484247913.06,48436,5.81,72094.8,-15.51,-24.83,-25.65,0,*64
1484247914.33,48437,5.81,72112.3,-15.47,-24.77,-25.55,0,*6A
1484247915.57,48438,5.81,72104.5,-15.49,-24.93,-25.81,0,*68
1484247916.82,48439,5.81,72098.3,-15.49,-25.09,-25.75,0,*60
1484247918.03,48440,5.81,72096.8,-15.49,-25.09,-25.91,0,*64
1484247919.27,48441,5.81,72090.8,-15.47,-25.09,-25.87,0,*6C
1484247920.53,48442,5.81,72096.3,-15.47,-24.93,-25.75,0,*60
1484247921.77,48443,5.81,72092.0,-15.49,-24.97,-25.81,0,*60
1484247923.02,48444,5.81,72100.0,-15.49,-25.09,-25.75,0,*6A
1484247924.24,48445,5.81,72100.0,-15.49,-25.13,-25.91,0,*6A
1484247925.48,48446,5.81,72106.8,-15.49,-25.13,-25.81,0,*68
1484247926.73,48447,5.81,72110.8,-15.49,-25.09,-25.97,0,*65
1484247927.99,48448,5.81,72108.5,-15.47,-25.03,-25.87,0,*6F
1484247929.26,48449,5.81,72110.0,-15.49,-25.29,-25.97,0,*69
1484247930.48,48450,5.81,72108.8,-15.49,-25.23,-25.91,0,*6D
1484247931.69,48451,5.81,72106.5,-15.49,-25.09,-25.87,0,*63
1484247932.94,48452,5.81,72104.3,-15.49,-24.97,-25.75,0,*6B
1484247934.15,48453,5.81,72102.0,-15.49,-25.09,-25.91,0,*66
1484247935.39,48454,5.81,72108.3,-15.49,-25.09,-25.81,0,*60
1484247936.62,48455,5.81,72106.0,-15.49,-25.13,-26.07,0,*67
1484247937.83,48456,5.81,72104.8,-15.49,-25.13,-25.91,0,*68
1484247939.08,48457,5.81,72110.5,-15.49,-25.13,-25.97,0,*6F
1484247940.32,48458,5.81,72114.3,-15.47,-25.09,-25.91,0,*63
1484247941.59,48459,5.81,72112.0,-15.49,-25.29,-25.97,0,*68
1484247942.84,48460,5.81,72114.0,-15.49,-25.13,-25.97,0,*6B
1484247944.08,48461,5.81,72114.8,-15.49,-24.97,-25.97,0,*67
1484247945.33,48462,5.81,72112.8,-15.49,-25.13,-25.97,0,*69
1484247946.58,48463,5.81,72116.5,-15.49,-25.13,-25.97,0,*68
1484247947.83,48464,5.81,72122.8,-15.49,-24.97,-25.75,0,*6E
1484247949.07,48465,5.81,72118.3,-15.49,-25.09,-25.81,0,*62
1484247950.31,48466,5.81,72114.3,-15.49,-24.93,-25.75,0,*68
1484247951.52,48467,5.81,72114.8,-15.49,-24.93,-25.65,0,*68
1484247952.77,48468,5.81,72112.5,-15.49,-24.97,-25.81,0,*69
1484247954.01,48469,5.81,72114.5,-15.49,-25.09,-25.81,0,*6E
1484247955.22,48470,5.81,72112.0,-15.49,-25.13,-25.91,0,*6C
1484247956.47,48471,5.81,72106.3,-15.49,-25.09,-25.97,0,*60
1484247957.72,48472,5.81,72112.0,-15.49,-25.13,-25.97,0,*68
1484247958.97,48473,5.81,72112.3,-15.49,-25.13,-25.97,0,*69
1484247960.21,48474,5.81,72112.0,-15.49,-25.23,-25.97,0,*6D
1484247961.46,48475,5.81,72112.5,-15.49,-25.13,-25.97,0,*6F
1484247962.7,48476,5.81,72114.0,-15.49,-25.23,-25.97,0,*6F
1484247963.95,48477,5.81,72110.8,-15.49,-25.39,-26.13,0,*6A
1484247965.22,48478,5.81,72114.0,-15.49,-25.29,-26.13,0,*64
1484247966.45,48479,5.81,72102.5,-15.49,-25.45,-26.23,0,*6C
1484247967.72,48480,5.81,72102.0,-15.49,-25.29,-26.13,0,*63
1484247968.97,48481,5.81,72104.5,-15.49,-25.39,-26.13,0,*63
1484247970.18,48482,5.81,72102.3,-15.49,-25.35,-26.07,0,*69
1484247971.42,48483,5.81,72108.3,-15.49,-25.29,-26.23,0,*63
1484247972.69,48484,5.81,72114.0,-15.51,-25.13,-25.97,0,*68
1484247973.96,48485,5.81,72114.3,-15.51,-25.23,-25.97,0,*6A
1484247975.23,48486,5.81,72112.8,-15.51,-25.23,-25.97,0,*69
1484247976.49,48487,5.81,72112.0,-15.47,-25.35,-26.13,0,*67
1484247977.73,48488,5.81,72120.8,-15.47,-25.39,-26.07,0,*61
1484247978.97,48489,5.81,72116.8,-15.49,-25.45,-26.23,0,*63
1484247980.21,48490,5.81,72112.8,-15.51,-25.39,-26.07,0,*6F
1484247981.48,48491,5.81,72114.3,-15.51,-25.29,-26.07,0,*6F
1484247982.74,48492,5.81,72114.0,-15.51,-25.29,-26.07,0,*6C
1484247983.99,48493,5.81,72114.0,-15.51,-25.39,-26.07,0,*6C
1484247985.28,48494,5.81,72114.5,-15.51,-25.29,-26.13,0,*6F
1484247986.55,48495,5.81,72118.5,-15.51,-25.39,-26.13,0,*6F
1484247987.77,48496,5.81,72116.3,-15.49,-25.39,-26.07,0,*60
1484247989.0,48497,5.81,72118.8,-15.49,-25.45,-26.23,0,*6C
1484247990.25,48498,5.81,72120.8,-15.51,-25.49,-26.23,0,*66
1484247991.48,48499,5.81,72124.0,-15.53,-25.45,-26.23,0,*69
1484247992.74,48500,5.81,72126.0,-15.51,-25.45,-26.23,0,*6A
1484247993.99,48501,5.81,72120.5,-15.53,-25.39,-26.13,0,*61
1484247995.25,48502,5.81,72124.3,-15.51,-25.45,-26.23,0,*68
1484247996.51,48503,5.81,72122.0,-15.51,-25.29,-26.23,0,*63
1484247997.74,48504,5.81,72122.5,-15.53,-25.39,-26.07,0,*61
1484247999.0,48505,5.81,72128.0,-15.51,-25.29,-26.07,0,*63
1484248000.25,48506,5.81,72124.5,-15.53,-25.29,-26.07,0,*62
1484248001.49,48507,5.81,72126.0,-15.53,-25.39,-26.13,0,*67
1484248002.72,48508,5.81,72128.0,-15.53,-25.49,-26.23,0,*6C
1484248003.98,48509,5.81,72130.5,-15.51,-25.29,-26.07,0,*6F
1484248005.23,48510,5.81,72128.0,-15.53,-25.29,-26.07,0,*65
1484248006.47,48511,5.81,72124.8,-15.53,-25.45,-26.23,0,*68
1484248007.71,48512,5.81,72124.5,-15.51,-25.23,-26.07,0,*6F
1484248008.96,48513,5.81,72126.0,-15.53,-25.13,-25.97,0,*65
1484248010.21,48514,5.81,72126.8,-15.53,-25.39,-26.13,0,*65
1484248011.46,48515,5.81,72126.0,-15.53,-25.49,-26.29,0,*6A
1484248012.71,48516,5.81,72124.3,-15.53,-25.75,-26.45,0,*6C
1484248013.93,48517,5.81,72124.3,-15.53,-25.65,-26.45,0,*6C
1484248015.15,48518,5.81,72124.3,-15.53,-25.65,-26.49,0,*6F
1484248016.37,48519,5.81,72126.5,-15.53,-25.65,-26.45,0,*62
1484248017.59,48520,5.81,72126.0,-15.53,-25.65,-26.49,0,*64
1484248018.85,48521,5.81,72120.8,-15.59,-25.97,-26.71,0,*69
1484248020.11,48522,5.81,72124.3,-15.57,-25.87,-26.55,0,*63
1484248021.35,48523,5.81,72126.0,-15.57,-25.87,-26.65,0,*61
1484248022.64,48524,5.81,72126.5,-15.57,-25.71,-26.55,0,*6C
1484248023.91,48525,5.81,72126.5,-15.57,-25.81,-26.45,0,*63
1484248025.15,48526,5.81,72124.0,-15.59,-25.65,-26.33,0,*65
1484248026.39,48527,5.81,72124.5,-15.59,-25.71,-26.45,0,*60
1484248027.59,48528,5.81,72124.8,-15.59,-25.65,-26.45,0,*6A
1484248028.84,48529,5.81,72128.8,-15.59,-25.49,-26.33,0,*64
1484248030.11,48530,5.81,72126.0,-15.59,-25.55,-26.29,0,*6A
1484248031.35,48531,5.81,72130.5,-15.59,-25.49,-26.33,0,*6D
1484248032.59,48532,5.81,72126.5,-15.59,-25.55,-26.45,0,*62
1484248033.8,48533,5.81,72126.5,-15.59,-25.49,-26.45,0,*6E
1484248035.07,48534,5.81,72120.5,-15.59,-25.55,-26.33,0,*65
1484248036.31,48535,5.81,72120.0,-15.59,-25.71,-26.45,0,*63
1484248037.54,48536,5.81,72120.3,-15.59,-25.55,-26.45,0,*66
1484248038.81,48537,5.81,72120.8,-15.59,-25.55,-26.33,0,*66
1484248040.02,48538,5.81,72120.8,-15.59,-25.65,-26.49,0,*67
1484248041.3,48539,5.81,72120.3,-15.61,-25.71,-26.39,0,*6F
1484248042.59,48540,5.81,72124.5,-15.61,-25.55,-26.17,0,*6B
1484248043.83,48541,5.81,72126.8,-15.63,-25.39,-26.17,0,*62
1484248045.07,48542,5.81,72128.3,-15.61,-25.49,-26.23,0,*63
1484248046.34,48543,5.81,72124.0,-15.61,-25.23,-26.17,0,*69
1484248047.57,48544,5.81,72130.5,-15.61,-25.39,-26.23,0,*62
1484248048.84,48545,5.81,72126.5,-15.61,-25.39,-26.17,0,*64
1484248050.08,48546,5.81,72126.3,-15.61,-25.39,-26.07,0,*66
1484248051.35,48547,5.81,72126.8,-15.61,-25.49,-26.33,0,*67
1484248052.62,48548,5.81,72126.8,-15.61,-25.39,-26.17,0,*69
1484248053.89,48549,5.81,72126.3,-15.61,-25.49,-26.17,0,*6F
1484248055.18,48550,5.81,72126.8,-15.61,-25.75,-26.55,0,*6E
1484248056.4,48551,5.81,72126.5,-15.63,-25.61,-26.39,0,*62
1484248057.67,48552,5.81,72124.3,-15.61,-25.55,-26.39,0,*64
1484248058.91,48553,5.81,72122.8,-15.61,-25.61,-26.49,0,*65
1484248060.13,48554,5.81,72124.8,-15.63,-25.61,-26.39,0,*67
1484248061.4,48555,5.81,72126.0,-15.63,-25.55,-26.33,0,*6B
1484248062.67,48556,5.81,72124.0,-15.61,-25.35,-26.17,0,*6A
1484248063.9,48557,5.81,72122.3,-15.61,-25.39,-26.23,0,*60
1484248065.15,48558,5.81,72128.0,-15.63,-25.39,-26.17,0,*6A
1484248066.38,48559,5.81,72126.5,-15.61,-25.35,-26.07,0,*64
1484248067.63,48560,5.81,72126.3,-15.61,-25.09,-26.03,0,*65
1484248068.84,48561,5.81,72124.3,-15.63,-25.23,-26.07,0,*6A
1484248070.1,48562,5.81,72118.3,-15.61,-25.35,-26.17,0,*6D
1484248071.34,48563,5.81,72114.5,-15.61,-25.19,-25.91,0,*6F
1484248072.58,48564,5.81,72110.0,-15.61,-25.23,-26.03,0,*69
1484248073.82,48565,5.81,72106.0,-15.61,-25.23,-26.03,0,*68
1484248075.09,48566,5.81,72106.8,-15.61,-25.03,-25.87,0,*66
1484248076.39,48567,5.81,72102.0,-15.61,-25.03,-25.75,0,*6A
1484248077.68,48568,5.81,72100.5,-15.61,-25.03,-25.75,0,*65
1484248078.95,48569,5.81,72098.3,-15.61,-25.03,-25.87,0,*69
1484248080.18,48570,5.81,72096.3,-15.59,-24.97,-25.81,0,*60
1484248081.45,48571,5.81,72104.3,-15.59,-24.87,-25.71,0,*6F
1484248082.71,48572,5.81,72104.5,-15.59,-24.87,-25.71,0,*6C
1484248083.95,48573,5.81,72100.8,-15.59,-24.97,-25.71,0,*6C
1484248085.24,48574,5.81,72102.8,-15.57,-24.87,-25.81,0,*6B
1484248086.45,48575,5.81,72102.3,-15.59,-24.97,-25.87,0,*63
1484248087.71,48576,5.81,72104.8,-15.59,-24.87,-25.81,0,*67
1484248088.97,48577,5.81,72110.8,-15.57,-24.87,-25.87,0,*6E
1484248090.18,48578,5.81,72112.0,-15.59,-24.97,-25.87,0,*6E
1484248091.39,48579,5.81,72108.5,-15.59,-24.97,-25.87,0,*6F
1484248092.62,48580,5.81,72106.8,-15.59,-24.97,-25.81,0,*6F
1484248093.86,48581,5.81,72106.0,-15.57,-24.97,-25.87,0,*66
1484248095.09,48582,5.81,72106.0,-15.57,-24.97,-25.87,0,*65
1484248096.35,48583,5.81,72110.0,-15.57,-25.35,-26.13,0,*63
1484248097.64,48584,5.81,72110.5,-15.57,-25.45,-26.17,0,*67
1484248098.93,48585,5.81,72110.3,-15.57,-25.29,-26.13,0,*68
1484248100.21,48586,5.81,72112.8,-15.57,-25.45,-26.17,0,*65